Private Wetterstation Wechselburg
Wetterdaten: Samstag, 03.07.2010
Datum Zeit Temp. +2m Bodentemp. Temp.+5cm Temp. Wind Windchill X Diff Temp. Feuchte +2m Feuchte +5cm Sonnenschein Luftdruck Regen Wind Richtung Richtung Sonnenschein UV Taupunkt Windchill Windben
03.07.2010 00:00 22,2 C 22,7 C 20,9 C 20,8 C 17,9 C 0,0 C 70 % 75 % 0 % 1016,1 hPa 0,0 l/m 0,0 km/h (0 Bft) S 180 0 min 0,0 UV-I 16,5 C 17,9 C 0,0 km/h (0 Bft)
03.07.2010 00:07 22,1 C 22,7 C 20,9 C 20,7 C 17,9 C 0,0 C 70 % 75 % 0 % 1016,1 hPa 0,0 l/m 0,0 km/h (0 Bft) S 180 0 min 0,0 UV-I 16,4 C 17,9 C 0,0 km/h (0 Bft)
03.07.2010 00:10 22,1 C 22,7 C 20,9 C 20,7 C 17,9 C 0,0 C 70 % 75 % 0 % 1016,1 hPa 0,0 l/m 0,0 km/h (0 Bft) S 180 0 min 0,0 UV-I 16,4 C 17,9 C 0,0 km/h (0 Bft)
03.07.2010 00:15 22,1 C 22,7 C 20,9 C 20,7 C 17,9 C 0,0 C 70 % 75 % 0 % 1016,1 hPa 0,0 l/m 0,0 km/h (0 Bft) S 180 0 min 0,0 UV-I 16,4 C 17,9 C 0,0 km/h (0 Bft)
03.07.2010 00:20 22,1 C 22,6 C 20,9 C 20,7 C 17,8 C 0,0 C 70 % 75 % 0 % 1016,2 hPa 0,0 l/m 0,0 km/h (0 Bft) S 180 0 min 0,0 UV-I 16,4 C 17,8 C 0,0 km/h (0 Bft)
03.07.2010 00:25 22,1 C 22,7 C 20,9 C 20,6 C 17,7 C 0,0 C 69 % 75 % 0 % 1016,2 hPa 0,0 l/m 0,0 km/h (0 Bft) S 180 0 min 0,0 UV-I 16,1 C 17,7 C 0,0 km/h (0 Bft)
03.07.2010 00:30 22,0 C 22,7 C 20,9 C 20,6 C 17,7 C 0,0 C 70 % 75 % 0 % 1016,2 hPa 0,0 l/m 0,0 km/h (0 Bft) S 180 0 min 0,0 UV-I 16,3 C 17,7 C 0,0 km/h (0 Bft)
03.07.2010 00:35 21,8 C 22,7 C 20,9 C 20,4 C 17,7 C 0,0 C 69 % 75 % 0 % 1016,2 hPa 0,0 l/m 0,0 km/h (0 Bft) N-NW 337 0 min 0,0 UV-I 15,9 C 17,7 C 0,0 km/h (0 Bft)
03.07.2010 00:40 21,8 C 22,7 C 20,9 C 20,4 C 17,7 C 0,0 C 70 % 75 % 0 % 1016,2 hPa 0,0 l/m 0,0 km/h (0 Bft) NW 315 0 min 0,0 UV-I 16,1 C 17,7 C 0,0 km/h (0 Bft)
03.07.2010 00:45 21,9 C 22,6 C 20,9 C 20,5 C 17,6 C 0,0 C 69 % 75 % 0 % 1016,2 hPa 0,0 l/m 0,0 km/h (0 Bft) N-NW 337 0 min 0,0 UV-I 15,9 C 17,6 C 0,0 km/h (0 Bft)
03.07.2010 00:50 21,6 C 22,6 C 20,9 C 20,2 C 17,5 C 0,0 C 69 % 75 % 0 % 1016,2 hPa 0,0 l/m 0,0 km/h (0 Bft) N-NW 337 0 min 0,0 UV-I 15,7 C 17,5 C 0,0 km/h (0 Bft)
03.07.2010 00:55 21,5 C 22,6 C 20,9 C 20,2 C 17,5 C 0,0 C 69 % 75 % 0 % 1016,2 hPa 0,0 l/m 0,0 km/h (0 Bft) N-NW 337 0 min 0,0 UV-I 15,6 C 17,5 C 0,0 km/h (0 Bft)
03.07.2010 01:00 21,4 C 22,6 C 20,9 C 20,1 C 17,4 C 0,0 C 70 % 75 % 0 % 1016,4 hPa 0,0 l/m 0,2 km/h (0 Bft) SW 225 0 min 0,0 UV-I 15,7 C 17,4 C 1,8 km/h (1 Bft)
03.07.2010 01:06 21,5 C 22,6 C 20,9 C 20,1 C 17,3 C 0,0 C 70 % 75 % 0 % 1016,4 hPa 0,0 l/m 0,5 km/h (0 Bft) N 0 0 min 0,0 UV-I 15,8 C 17,3 C 1,6 km/h (1 Bft)
03.07.2010 01:10 21,2 C 22,6 C 20,9 C 19,8 C 17,0 C 0,0 C 70 % 75 % 0 % 1016,4 hPa 0,0 l/m 0,5 km/h (0 Bft) SW 225 0 min 0,0 UV-I 15,5 C 17,0 C 0,0 km/h (0 Bft)
03.07.2010 01:15 21,0 C 22,6 C 20,9 C 19,6 C 16,9 C 0,0 C 71 % 75 % 0 % 1016,4 hPa 0,0 l/m 0,0 km/h (0 Bft) SW 225 0 min 0,0 UV-I 15,5 C 16,9 C 0,0 km/h (0 Bft)
03.07.2010 01:20 21,0 C 22,5 C 20,9 C 19,6 C 16,8 C 0,0 C 71 % 75 % 0 % 1016,1 hPa 0,0 l/m 0,2 km/h (0 Bft) SW 225 0 min 0,0 UV-I 15,5 C 16,8 C 0,0 km/h (0 Bft)
03.07.2010 01:25 21,1 C 22,5 C 20,9 C 19,6 C 16,7 C 0,0 C 71 % 75 % 0 % 1016,1 hPa 0,0 l/m 0,2 km/h (0 Bft) SW 225 0 min 0,0 UV-I 15,6 C 16,7 C 0,0 km/h (0 Bft)
03.07.2010 01:30 20,9 C 22,5 C 20,9 C 19,5 C 16,7 C 0,0 C 71 % 75 % 0 % 1016,1 hPa 0,0 l/m 0,0 km/h (0 Bft) SW 225 0 min 0,0 UV-I 15,4 C 16,7 C 1,6 km/h (1 Bft)
03.07.2010 01:35 20,9 C 22,5 C 20,9 C 19,5 C 16,6 C 0,0 C 71 % 75 % 0 % 1016,1 hPa 0,0 l/m 0,6 km/h (0 Bft) SW 225 0 min 0,0 UV-I 15,4 C 16,6 C 2,3 km/h (1 Bft)
03.07.2010 01:40 20,9 C 22,5 C 20,9 C 19,4 C 16,5 C 0,0 C 71 % 75 % 0 % 1016,1 hPa 0,0 l/m 0,6 km/h (0 Bft) SW 225 0 min 0,0 UV-I 15,4 C 16,5 C 2,6 km/h (1 Bft)
03.07.2010 01:45 20,8 C 22,5 C 20,9 C 19,4 C 16,5 C 0,0 C 71 % 75 % 0 % 1016,1 hPa 0,0 l/m 0,3 km/h (0 Bft) SW 225 0 min 0,0 UV-I 15,3 C 16,5 C 0,0 km/h (0 Bft)
03.07.2010 01:50 20,7 C 22,5 C 20,9 C 19,2 C 16,3 C 0,0 C 72 % 75 % 0 % 1016,1 hPa 0,0 l/m 0,0 km/h (0 Bft) SW 225 0 min 0,0 UV-I 15,5 C 16,3 C 0,0 km/h (0 Bft)
03.07.2010 01:55 20,6 C 22,5 C 20,9 C 19,2 C 16,3 C 0,0 C 72 % 75 % 0 % 1016,1 hPa 0,0 l/m 0,0 km/h (0 Bft) SW 225 0 min 0,0 UV-I 15,4 C 16,3 C 0,0 km/h (0 Bft)
03.07.2010 02:00 20,5 C 22,5 C 20,9 C 19,1 C 16,3 C 0,0 C 72 % 75 % 0 % 1015,8 hPa 0,0 l/m 0,0 km/h (0 Bft) SW 225 0 min 0,0 UV-I 15,3 C 16,3 C 0,0 km/h (0 Bft)
03.07.2010 02:06 20,4 C 22,4 C 20,9 C 19,1 C 16,4 C 0,0 C 72 % 75 % 0 % 1015,8 hPa 0,0 l/m 0,0 km/h (0 Bft) N 0 0 min 0,0 UV-I 15,2 C 16,4 C 0,0 km/h (0 Bft)
03.07.2010 02:10 20,3 C 22,4 C 20,9 C 19,0 C 16,5 C 0,0 C 73 % 75 % 0 % 1015,8 hPa 0,0 l/m 0,0 km/h (0 Bft) SW 225 0 min 0,0 UV-I 15,3 C 16,5 C 0,0 km/h (0 Bft)
03.07.2010 02:15 20,4 C 22,4 C 20,9 C 19,1 C 16,5 C 0,0 C 73 % 75 % 0 % 1015,8 hPa 0,0 l/m 0,3 km/h (0 Bft) W-SW 247 0 min 0,0 UV-I 15,4 C 16,5 C 0,0 km/h (0 Bft)
03.07.2010 02:20 20,3 C 22,4 C 20,9 C 19,0 C 16,5 C 0,0 C 73 % 75 % 0 % 1016,3 hPa 0,0 l/m 0,3 km/h (0 Bft) W-SW 247 0 min 0,0 UV-I 15,3 C 16,5 C 0,0 km/h (0 Bft)
03.07.2010 02:25 20,2 C 22,4 C 20,9 C 19,0 C 16,5 C 0,0 C 73 % 75 % 0 % 1016,3 hPa 0,0 l/m 0,0 km/h (0 Bft) W-SW 247 0 min 0,0 UV-I 15,2 C 16,5 C 0,0 km/h (0 Bft)
03.07.2010 02:30 20,1 C 22,4 C 20,9 C 18,9 C 16,6 C 0,0 C 74 % 75 % 0 % 1016,3 hPa 0,0 l/m 0,0 km/h (0 Bft) W-SW 247 0 min 0,0 UV-I 15,3 C 16,6 C 0,0 km/h (0 Bft)
03.07.2010 02:35 20,0 C 22,4 C 20,9 C 18,9 C 16,6 C 0,0 C 74 % 75 % 0 % 1016,3 hPa 0,0 l/m 0,0 km/h (0 Bft) W-SW 247 0 min 0,0 UV-I 15,2 C 16,6 C 0,0 km/h (0 Bft)
03.07.2010 02:40 20,0 C 22,4 C 20,9 C 18,9 C 16,6 C 0,0 C 74 % 75 % 0 % 1016,2 hPa 0,0 l/m 0,0 km/h (0 Bft) W-SW 247 0 min 0,0 UV-I 15,2 C 16,6 C 0,0 km/h (0 Bft)
03.07.2010 02:45 20,0 C 22,4 C 20,9 C 18,8 C 16,5 C 0,0 C 75 % 75 % 0 % 1016,2 hPa 0,0 l/m 0,0 km/h (0 Bft) W-SW 247 0 min 0,0 UV-I 15,4 C 16,5 C 0,0 km/h (0 Bft)
03.07.2010 02:50 20,1 C 22,3 C 20,9 C 18,9 C 16,4 C 0,0 C 75 % 75 % 0 % 1016,2 hPa 0,0 l/m 0,2 km/h (0 Bft) W-SW 247 0 min 0,0 UV-I 15,5 C 16,4 C 0,0 km/h (0 Bft)
03.07.2010 02:55 20,0 C 22,3 C 20,9 C 18,8 C 16,3 C 0,0 C 74 % 75 % 0 % 1016,2 hPa 0,0 l/m 0,2 km/h (0 Bft) W-SW 247 0 min 0,0 UV-I 15,2 C 16,3 C 0,0 km/h (0 Bft)
03.07.2010 03:00 20,0 C 22,3 C 20,9 C 18,7 C 16,1 C 0,0 C 74 % 75 % 0 % 1016,0 hPa 0,0 l/m 0,0 km/h (0 Bft) W-SW 247 0 min 0,0 UV-I 15,2 C 16,1 C 0,0 km/h (0 Bft)
03.07.2010 03:06 20,0 C 22,2 C 20,9 C 18,7 C 16,1 C 0,0 C 74 % 75 % 0 % 1016,0 hPa 0,0 l/m 0,0 km/h (0 Bft) N 0 0 min 0,0 UV-I 15,2 C 16,1 C 0,0 km/h (0 Bft)
03.07.2010 03:10 20,0 C 22,2 C 20,9 C 18,6 C 15,9 C 0,0 C 74 % 75 % 0 % 1016,0 hPa 0,0 l/m 0,0 km/h (0 Bft) W-SW 247 0 min 0,0 UV-I 15,2 C 15,9 C 0,0 km/h (0 Bft)
03.07.2010 03:15 19,8 C 22,2 C 20,9 C 18,5 C 15,9 C 0,0 C 74 % 75 % 0 % 1016,0 hPa 0,0 l/m 0,0 km/h (0 Bft) W-SW 247 0 min 0,0 UV-I 15,0 C 15,9 C 0,0 km/h (0 Bft)
03.07.2010 03:20 19,6 C 22,3 C 20,9 C 18,4 C 15,9 C 0,0 C 75 % 75 % 0 % 1015,6 hPa 0,0 l/m 0,0 km/h (0 Bft) W-SW 247 0 min 0,0 UV-I 15,0 C 15,9 C 0,0 km/h (0 Bft)
03.07.2010 03:25 19,5 C 22,2 C 20,9 C 18,3 C 16,0 C 0,0 C 75 % 75 % 0 % 1015,6 hPa 0,0 l/m 0,0 km/h (0 Bft) NO 45 0 min 0,0 UV-I 14,9 C 16,0 C 0,0 km/h (0 Bft)
03.07.2010 03:30 19,5 C 22,2 C 20,9 C 18,4 C 16,2 C 0,0 C 75 % 75 % 0 % 1015,6 hPa 0,0 l/m 0,0 km/h (0 Bft) NO 45 0 min 0,0 UV-I 14,9 C 16,2 C 0,0 km/h (0 Bft)
03.07.2010 03:35 19,4 C 22,1 C 20,9 C 18,4 C 16,3 C 0,0 C 75 % 75 % 0 % 1015,6 hPa 0,0 l/m 0,0 km/h (0 Bft) NO 45 0 min 0,0 UV-I 14,8 C 16,3 C 0,0 km/h (0 Bft)
03.07.2010 03:40 19,6 C 22,1 C 20,9 C 18,5 C 16,3 C 0,0 C 75 % 75 % 0 % 1016,1 hPa 0,0 l/m 0,0 km/h (0 Bft) O-NO 67 0 min 0,0 UV-I 15,0 C 16,3 C 0,0 km/h (0 Bft)
03.07.2010 03:45 19,6 C 22,1 C 20,9 C 18,5 C 16,3 C 0,0 C 75 % 75 % 0 % 1016,1 hPa 0,0 l/m 0,6 km/h (0 Bft) SW 225 0 min 0,0 UV-I 15,0 C 16,3 C 1,8 km/h (1 Bft)
03.07.2010 03:50 19,6 C 22,1 C 20,9 C 18,4 C 16,0 C 0,0 C 75 % 75 % 0 % 1016,1 hPa 0,0 l/m 0,8 km/h (0 Bft) SW 225 0 min 0,0 UV-I 15,0 C 16,0 C 2,7 km/h (1 Bft)
03.07.2010 03:55 19,5 C 22,1 C 20,9 C 18,3 C 15,9 C 0,0 C 75 % 75 % 0 % 1016,1 hPa 0,0 l/m 0,3 km/h (0 Bft) SW 225 0 min 0,0 UV-I 14,9 C 15,9 C 0,0 km/h (0 Bft)
03.07.2010 04:00 19,5 C 22,2 C 20,9 C 18,3 C 15,8 C 0,0 C 76 % 75 % 0 % 1015,9 hPa 0,0 l/m 0,0 km/h (0 Bft) SW 225 0 min 0,0 UV-I 15,2 C 15,8 C 0,0 km/h (0 Bft)
03.07.2010 04:06 19,3 C 22,2 C 20,9 C 18,1 C 15,8 C 0,0 C 75 % 75 % 0 % 1015,9 hPa 0,0 l/m 0,0 km/h (0 Bft) N 0 0 min 0,0 UV-I 14,8 C 15,8 C 0,0 km/h (0 Bft)
03.07.2010 04:10 19,0 C 22,2 C 20,9 C 18,0 C 15,9 C 0,0 C 75 % 75 % 0 % 1015,9 hPa 0,0 l/m 0,0 km/h (0 Bft) SW 225 0 min 0,0 UV-I 14,5 C 15,9 C 0,0 km/h (0 Bft)
03.07.2010 04:15 19,1 C 22,1 C 20,9 C 18,1 C 16,0 C 0,0 C 76 % 75 % 0 % 1015,9 hPa 0,0 l/m 0,0 km/h (0 Bft) SW 225 0 min 0,0 UV-I 14,8 C 16,0 C 0,0 km/h (0 Bft)
03.07.2010 04:20 19,2 C 22,1 C 20,9 C 18,2 C 16,1 C 0,0 C 75 % 75 % 0 % 1015,9 hPa 0,0 l/m 0,0 km/h (0 Bft) SW 225 0 min 0,0 UV-I 14,7 C 16,1 C 0,0 km/h (0 Bft)
03.07.2010 04:25 19,2 C 22,0 C 20,9 C 18,2 C 16,2 C 0,0 C 75 % 75 % 0 % 1015,9 hPa 0,0 l/m 0,2 km/h (0 Bft) SW 225 0 min 0,0 UV-I 14,7 C 16,2 C 1,6 km/h (1 Bft)
03.07.2010 04:30 19,3 C 22,0 C 20,9 C 18,2 C 16,1 C 0,0 C 76 % 75 % 0 % 1015,9 hPa 0,0 l/m 0,5 km/h (0 Bft) SW 225 0 min 0,0 UV-I 15,0 C 16,1 C 1,6 km/h (1 Bft)
03.07.2010 04:35 19,3 C 22,1 C 20,9 C 18,2 C 16,0 C 0,0 C 76 % 75 % 0 % 1015,9 hPa 0,0 l/m 0,8 km/h (0 Bft) SW 225 0 min 0,0 UV-I 15,0 C 16,0 C 1,8 km/h (1 Bft)
03.07.2010 04:40 19,2 C 22,1 C 20,9 C 18,1 C 15,8 C 0,0 C 75 % 75 % 0 % 1015,4 hPa 0,0 l/m 0,6 km/h (0 Bft) SW 225 0 min 0,0 UV-I 14,7 C 15,8 C 0,0 km/h (0 Bft)
03.07.2010 04:45 19,1 C 22,1 C 20,9 C 18,0 C 15,7 C 0,0 C 75 % 75 % 0 % 1015,4 hPa 0,0 l/m 0,3 km/h (0 Bft) SW 225 0 min 0,0 UV-I 14,6 C 15,7 C 0,0 km/h (0 Bft)
03.07.2010 04:50 19,1 C 22,1 C 20,9 C 17,9 C 15,6 C 0,0 C 76 % 75 % 0 % 1015,4 hPa 0,0 l/m 0,0 km/h (0 Bft) SW 225 0 min 0,0 UV-I 14,8 C 15,6 C 0,0 km/h (0 Bft)
03.07.2010 04:55 18,8 C 22,1 C 20,9 C 17,7 C 15,6 C 0,0 C 76 % 75 % 0 % 1015,4 hPa 0,0 l/m 0,0 km/h (0 Bft) SW 225 0 min 0,0 UV-I 14,5 C 15,6 C 0,0 km/h (0 Bft)
03.07.2010 05:00 18,8 C 22,1 C 20,9 C 17,7 C 15,5 C 0,0 C 76 % 75 % 0 % 1015,8 hPa 0,0 l/m 0,0 km/h (0 Bft) SW 225 0 min 0,0 UV-I 14,5 C 15,5 C 0,0 km/h (0 Bft)
03.07.2010 05:06 18,9 C 22,1 C 20,9 C 17,7 C 15,4 C 0,0 C 77 % 75 % 0 % 1015,8 hPa 0,0 l/m 0,0 km/h (0 Bft) N 0 0 min 0,0 UV-I 14,8 C 15,4 C 0,0 km/h (0 Bft)
03.07.2010 05:10 18,9 C 22,0 C 20,9 C 17,7 C 15,4 C 0,0 C 77 % 75 % 0 % 1015,8 hPa 0,0 l/m 0,0 km/h (0 Bft) SW 225 0 min 0,0 UV-I 14,8 C 15,4 C 0,0 km/h (0 Bft)
03.07.2010 05:15 18,6 C 22,0 C 20,9 C 17,5 C 15,4 C 0,0 C 77 % 75 % 0 % 1015,8 hPa 0,0 l/m 0,0 km/h (0 Bft) SW 225 0 min 0,0 UV-I 14,5 C 15,4 C 0,0 km/h (0 Bft)
03.07.2010 05:20 18,7 C 22,0 C 20,9 C 17,6 C 15,4 C 0,0 C 77 % 75 % 0 % 1015,9 hPa 0,0 l/m 0,0 km/h (0 Bft) SW 225 0 min 0,0 UV-I 14,6 C 15,4 C 0,0 km/h (0 Bft)
03.07.2010 05:25 18,8 C 21,9 C 20,9 C 17,7 C 15,4 C 0,0 C 77 % 75 % 0 % 1015,9 hPa 0,0 l/m 0,0 km/h (0 Bft) SW 225 0 min 0,0 UV-I 14,7 C 15,4 C 0,0 km/h (0 Bft)
03.07.2010 05:30 18,8 C 22,0 C 20,9 C 17,7 C 15,4 C 0,0 C 77 % 75 % 0 % 1015,9 hPa 0,0 l/m 0,0 km/h (0 Bft) SW 225 0 min 0,0 UV-I 14,7 C 15,4 C 0,0 km/h (0 Bft)
03.07.2010 05:35 18,7 C 22,0 C 20,9 C 17,6 C 15,5 C 0,0 C 77 % 75 % 0 % 1015,9 hPa 0,0 l/m 0,0 km/h (0 Bft) SW 225 0 min 0,0 UV-I 14,6 C 15,5 C 0,0 km/h (0 Bft)
03.07.2010 05:40 18,6 C 21,9 C 20,9 C 17,6 C 15,6 C 0,0 C 77 % 75 % 0 % 1015,8 hPa 0,0 l/m 0,2 km/h (0 Bft) SW 225 0 min 0,0 UV-I 14,5 C 15,6 C 0,0 km/h (0 Bft)
03.07.2010 05:45 18,9 C 21,9 C 20,9 C 17,8 C 15,6 C 0,0 C 77 % 75 % 0 % 1015,8 hPa 0,0 l/m 0,2 km/h (0 Bft) SW 225 0 min 0,0 UV-I 14,8 C 15,6 C 0,0 km/h (0 Bft)
03.07.2010 05:50 18,9 C 21,9 C 20,9 C 17,8 C 15,7 C 0,0 C 77 % 75 % 0 % 1015,8 hPa 0,0 l/m 0,0 km/h (0 Bft) SW 225 0 min 0,0 UV-I 14,8 C 15,7 C 0,0 km/h (0 Bft)
03.07.2010 05:55 18,9 C 21,9 C 20,9 C 17,9 C 15,8 C 0,0 C 77 % 75 % 0 % 1015,8 hPa 0,0 l/m 0,0 km/h (0 Bft) SW 225 0 min 0,0 UV-I 14,8 C 15,8 C 0,0 km/h (0 Bft)
03.07.2010 06:00 18,8 C 21,8 C 20,9 C 17,9 C 16,0 C 0,0 C 77 % 75 % 0 % 1015,5 hPa 0,0 l/m 0,2 km/h (0 Bft) W-SW 247 0 min 0,0 UV-I 14,7 C 16,0 C 2,3 km/h (1 Bft)
03.07.2010 06:06 19,0 C 21,8 C 20,9 C 18,0 C 16,1 C 0,0 C 77 % 75 % 0 % 1015,5 hPa 0,0 l/m 0,3 km/h (0 Bft) N 0 0 min 0,0 UV-I 14,9 C 16,1 C 0,0 km/h (0 Bft)
03.07.2010 06:10 18,9 C 21,8 C 20,9 C 18,0 C 16,3 C 0,0 C 77 % 75 % 0 % 1015,5 hPa 0,0 l/m 0,3 km/h (0 Bft) W-SW 247 0 min 0,0 UV-I 14,8 C 16,3 C 1,6 km/h (1 Bft)
03.07.2010 06:15 18,8 C 21,7 C 20,9 C 18,0 C 16,5 C 0,0 C 77 % 75 % 0 % 1015,5 hPa 0,0 l/m 0,0 km/h (0 Bft) W-SW 247 0 min 0,0 UV-I 14,7 C 16,5 C 0,0 km/h (0 Bft)
03.07.2010 06:20 19,3 C 21,6 C 20,9 C 18,5 C 17,0 C 0,0 C 77 % 75 % 0 % 1016,0 hPa 0,0 l/m 0,0 km/h (0 Bft) W-SW 247 0 min 0,0 UV-I 15,2 C 17,0 C 0,0 km/h (0 Bft)
03.07.2010 06:25 19,9 C 21,6 C 20,9 C 19,0 C 17,1 C 0,0 C 76 % 75 % 0 % 1016,0 hPa 0,0 l/m 0,3 km/h (0 Bft) W-SW 247 0 min 0,0 UV-I 15,5 C 17,1 C 0,0 km/h (0 Bft)
03.07.2010 06:30 20,2 C 21,6 C 20,9 C 19,2 C 17,1 C 0,0 C 74 % 75 % 0 % 1016,0 hPa 0,0 l/m 0,5 km/h (0 Bft) W-SW 247 0 min 0,0 UV-I 15,4 C 17,1 C 0,0 km/h (0 Bft)
03.07.2010 06:35 20,3 C 21,6 C 20,9 C 19,3 C 17,2 C 0,0 C 74 % 75 % 0 % 1016,0 hPa 0,0 l/m 0,2 km/h (0 Bft) N-NW 337 0 min 0,0 UV-I 15,5 C 17,2 C 0,0 km/h (0 Bft)
03.07.2010 06:40 20,3 C 21,6 C 20,9 C 19,4 C 17,5 C 0,0 C 74 % 75 % 0 % 1016,1 hPa 0,0 l/m 0,2 km/h (0 Bft) N 360 0 min 0,0 UV-I 15,5 C 17,5 C 0,0 km/h (0 Bft)
03.07.2010 06:45 20,5 C 21,6 C 20,9 C 19,6 C 17,8 C 0,0 C 74 % 75 % 0 % 1016,1 hPa 0,0 l/m 0,0 km/h (0 Bft) N-NW 337 0 min 0,0 UV-I 15,7 C 17,8 C 0,0 km/h (0 Bft)
03.07.2010 06:50 20,7 C 21,5 C 20,9 C 19,8 C 17,9 C 0,0 C 73 % 75 % 0 % 1016,1 hPa 0,0 l/m 0,3 km/h (0 Bft) SW 225 0 min 0,0 UV-I 15,7 C 17,9 C 1,8 km/h (1 Bft)
03.07.2010 06:55 20,7 C 21,6 C 20,9 C 19,8 C 18,0 C 0,0 C 73 % 75 % 0 % 1016,1 hPa 0,0 l/m 0,5 km/h (0 Bft) W-SW 247 0 min 0,0 UV-I 15,7 C 18,0 C 0,0 km/h (0 Bft)
03.07.2010 07:00 20,8 C 21,5 C 20,9 C 20,3 C 19,3 C 0,0 C 73 % 75 % 0 % 1016,2 hPa 0,0 l/m 0,2 km/h (0 Bft) W-SW 247 0 min 0,0 UV-I 15,8 C 19,3 C 0,0 km/h (0 Bft)
03.07.2010 07:06 21,2 C 21,5 C 20,9 C 20,9 C 20,3 C 0,0 C 72 % 75 % 0 % 1016,2 hPa 0,0 l/m 0,0 km/h (0 Bft) N 0 0 min 0,0 UV-I 15,9 C 20,3 C 0,0 km/h (0 Bft)
03.07.2010 07:10 21,1 C 21,4 C 20,9 C 21,5 C 21,5 C 0,4 C 72 % 75 % 11 % 1016,2 hPa 0,0 l/m 0,0 km/h (0 Bft) W-SW 247 0 min 0,0 UV-I 15,8 C 21,5 C 0,0 km/h (0 Bft)
03.07.2010 07:15 21,1 C 21,5 C 20,9 C 21,4 C 21,4 C 0,3 C 72 % 75 % 8 % 1016,2 hPa 0,0 l/m 0,0 km/h (0 Bft) W-SW 247 0 min 0,0 UV-I 15,8 C 21,4 C 0,0 km/h (0 Bft)
03.07.2010 07:20 21,8 C 21,5 C 20,9 C 22,0 C 22,0 C 0,2 C 70 % 75 % 5 % 1016,2 hPa 0,0 l/m 0,0 km/h (0 Bft) SW 225 0 min 0,1 UV-I 16,1 C 22,0 C 0,0 km/h (0 Bft)
03.07.2010 07:25 21,7 C 21,4 C 20,9 C 22,8 C 22,8 C 1,1 C 70 % 75 % 29 % 1016,2 hPa 0,0 l/m 0,0 km/h (0 Bft) SW 225 0 min 0,1 UV-I 16,0 C 22,8 C 0,0 km/h (0 Bft)
03.07.2010 07:30 21,6 C 21,4 C 18,5 C 24,1 C 24,1 C 2,5 C 71 % 81 % 66 % 1016,2 hPa 0,0 l/m 0,0 km/h (0 Bft) S-SW 202 0 min 0,1 UV-I 16,1 C 24,1 C 0,0 km/h (0 Bft)
03.07.2010 07:35 21,6 C 21,4 C 18,5 C 25,0 C 25,0 C 3,4 C 71 % 81 % 89 % 1016,2 hPa 0,0 l/m 0,0 km/h (0 Bft) S-SW 202 5 min 0,1 UV-I 16,1 C 25,0 C 0,0 km/h (0 Bft)
03.07.2010 07:40 21,7 C 21,4 C 18,5 C 26,0 C 26,0 C 4,3 C 71 % 81 % 100 % 1016,6 hPa 0,0 l/m 0,0 km/h (0 Bft) SW 225 5 min 0,2 UV-I 16,2 C 26,0 C 0,0 km/h (0 Bft)
03.07.2010 07:45 21,8 C 21,4 C 18,5 C 27,0 C 27,0 C 5,2 C 71 % 81 % 100 % 1016,6 hPa 0,0 l/m 0,0 km/h (0 Bft) SW 225 5 min 0,2 UV-I 16,3 C 27,0 C 0,0 km/h (0 Bft)
03.07.2010 07:50 22,0 C 21,3 C 18,5 C 28,0 C 28,0 C 6,0 C 70 % 81 % 100 % 1016,6 hPa 0,0 l/m 0,0 km/h (0 Bft) W-SW 247 5 min 0,2 UV-I 16,3 C 28,0 C 0,0 km/h (0 Bft)
03.07.2010 07:55 22,1 C 21,4 C 18,5 C 28,5 C 28,5 C 6,4 C 70 % 81 % 100 % 1016,6 hPa 0,0 l/m 0,0 km/h (0 Bft) SW 225 5 min 0,2 UV-I 16,4 C 28,5 C 0,0 km/h (0 Bft)
03.07.2010 08:00 22,3 C 21,3 C 18,5 C 28,6 C 28,6 C 6,3 C 69 % 81 % 100 % 1016,2 hPa 0,0 l/m 0,5 km/h (0 Bft) S 180 5 min 0,3 UV-I 16,3 C 28,6 C 1,6 km/h (1 Bft)
03.07.2010 08:06 22,4 C 21,3 C 18,5 C 28,9 C 28,9 C 6,5 C 69 % 81 % 100 % 1016,2 hPa 0,0 l/m 0,6 km/h (0 Bft) N 0 6 min 0,3 UV-I 16,4 C 28,9 C 0,0 km/h (0 Bft)
03.07.2010 08:10 22,7 C 21,3 C 18,5 C 29,6 C 29,6 C 6,9 C 68 % 81 % 100 % 1016,2 hPa 0,0 l/m 0,2 km/h (0 Bft) W 270 4 min 0,4 UV-I 16,5 C 29,6 C 0,0 km/h (0 Bft)
03.07.2010 08:15 22,8 C 21,3 C 18,5 C 30,0 C 30,0 C 7,2 C 68 % 81 % 100 % 1016,2 hPa 0,0 l/m 0,3 km/h (0 Bft) SW 225 5 min 0,4 UV-I 16,6 C 30,0 C 2,3 km/h (1 Bft)
03.07.2010 08:20 22,9 C 21,3 C 18,5 C 29,8 C 29,8 C 6,9 C 68 % 81 % 100 % 1016,4 hPa 0,0 l/m 1,4 km/h (1 Bft) SW 225 5 min 0,5 UV-I 16,7 C 29,8 C 2,9 km/h (1 Bft)
03.07.2010 08:25 23,0 C 21,3 C 18,5 C 29,6 C 29,6 C 6,6 C 68 % 81 % 100 % 1016,4 hPa 0,0 l/m 1,8 km/h (1 Bft) N-NW 337 5 min 0,5 UV-I 16,8 C 29,6 C 0,0 km/h (0 Bft)
03.07.2010 08:30 23,1 C 21,3 C 18,5 C 30,1 C 30,1 C 7,0 C 68 % 81 % 100 % 1016,4 hPa 0,0 l/m 1,1 km/h (1 Bft) W-SW 247 5 min 0,6 UV-I 16,9 C 30,1 C 3,4 km/h (1 Bft)
03.07.2010 08:35 23,2 C 21,3 C 18,5 C 30,5 C 30,5 C 7,3 C 68 % 81 % 100 % 1016,4 hPa 0,0 l/m 0,6 km/h (0 Bft) SW 225 5 min 0,6 UV-I 17,0 C 30,5 C 0,0 km/h (0 Bft)
03.07.2010 08:40 23,6 C 21,3 C 18,5 C 31,0 C 31,0 C 7,4 C 67 % 81 % 100 % 1016,2 hPa 0,0 l/m 0,5 km/h (0 Bft) W 270 5 min 0,7 UV-I 17,1 C 31,0 C 0,0 km/h (0 Bft)
03.07.2010 08:45 23,9 C 21,3 C 21,1 C 31,5 C 31,5 C 7,6 C 67 % 77 % 100 % 1016,2 hPa 0,0 l/m 0,3 km/h (0 Bft) W-SW 247 5 min 0,7 UV-I 17,4 C 31,5 C 0,0 km/h (0 Bft)
03.07.2010 08:50 23,9 C 21,3 C 21,1 C 32,1 C 32,1 C 8,2 C 67 % 77 % 100 % 1016,2 hPa 0,0 l/m 0,5 km/h (0 Bft) SW 225 5 min 0,8 UV-I 17,4 C 32,1 C 0,0 km/h (0 Bft)
03.07.2010 08:55 23,9 C 21,3 C 21,4 C 32,2 C 32,2 C 8,3 C 67 % 76 % 100 % 1016,2 hPa 0,0 l/m 0,5 km/h (0 Bft) W-SW 247 5 min 0,8 UV-I 17,4 C 32,2 C 1,9 km/h (1 Bft)
03.07.2010 09:00 24,3 C 21,2 C 21,6 C 32,5 C 32,5 C 8,2 C 67 % 76 % 100 % 1016,1 hPa 0,0 l/m 0,5 km/h (0 Bft) O-SO 112 5 min 0,9 UV-I 17,8 C 32,5 C 0,0 km/h (0 Bft)
03.07.2010 09:07 25,0 C 21,2 C 21,6 C 33,6 C 33,6 C 8,6 C 65 % 76 % 100 % 1016,1 hPa 0,0 l/m 0,8 km/h (0 Bft) SW 225 7 min 1,1 UV-I 17,9 C 33,6 C 1,9 km/h (1 Bft)
03.07.2010 09:10 25,0 C 21,2 C 21,6 C 33,6 C 33,6 C 8,6 C 65 % 76 % 100 % 1016,1 hPa 0,0 l/m 0,8 km/h (0 Bft) SW 225 3 min 1,1 UV-I 17,9 C 33,6 C 1,9 km/h (1 Bft)
03.07.2010 09:15 24,7 C 21,2 C 21,6 C 33,7 C 33,7 C 9,0 C 66 % 76 % 100 % 1016,1 hPa 0,0 l/m 1,0 km/h (0 Bft) S 180 5 min 1,1 UV-I 17,9 C 33,7 C 0,0 km/h (0 Bft)
03.07.2010 09:20 24,9 C 21,2 C 21,6 C 34,3 C 34,3 C 9,4 C 66 % 76 % 100 % 1016,1 hPa 0,0 l/m 0,3 km/h (0 Bft) N-NW 337 5 min 1,3 UV-I 18,1 C 34,3 C 0,0 km/h (0 Bft)
03.07.2010 09:25 25,1 C 21,2 C 21,6 C 34,3 C 34,3 C 9,2 C 66 % 76 % 100 % 1016,1 hPa 0,0 l/m 0,8 km/h (0 Bft) N-NO 22 5 min 1,3 UV-I 18,3 C 34,3 C 2,1 km/h (1 Bft)
03.07.2010 09:30 25,2 C 21,2 C 23,5 C 33,9 C 33,9 C 8,7 C 67 % 74 % 100 % 1016,1 hPa 0,0 l/m 1,8 km/h (1 Bft) NO 45 5 min 1,4 UV-I 18,6 C 33,9 C 4,8 km/h (1 Bft)
03.07.2010 09:35 25,5 C 21,2 C 23,7 C 33,8 C 33,8 C 8,3 C 61 % 74 % 100 % 1016,1 hPa 0,0 l/m 2,6 km/h (1 Bft) O-NO 67 5 min 1,4 UV-I 17,4 C 33,8 C 7,7 km/h (2 Bft)
03.07.2010 09:40 26,0 C 21,2 C 24,7 C 32,2 C 32,2 C 6,2 C 57 % 62 % 100 % 1016,2 hPa 0,0 l/m 5,5 km/h (1 Bft) O 90 5 min 1,6 UV-I 16,8 C 32,2 C 11,9 km/h (2 Bft)
03.07.2010 09:45 26,3 C 21,2 C 25,0 C 31,9 C 31,9 C 5,6 C 57 % 62 % 100 % 1016,2 hPa 0,0 l/m 6,0 km/h (2 Bft) O-NO 67 5 min 1,6 UV-I 17,1 C 31,9 C 3,9 km/h (1 Bft)
03.07.2010 09:50 26,7 C 21,2 C 25,3 C 31,4 C 31,4 C 4,7 C 54 % 59 % 100 % 1016,2 hPa 0,0 l/m 6,0 km/h (2 Bft) O-NO 67 5 min 1,6 UV-I 16,6 C 31,4 C 6,8 km/h (2 Bft)
03.07.2010 09:55 26,7 C 21,2 C 25,5 C 31,4 C 31,4 C 4,7 C 54 % 60 % 100 % 1016,2 hPa 0,0 l/m 6,3 km/h (2 Bft) O-NO 67 5 min 1,6 UV-I 16,6 C 31,4 C 8,9 km/h (2 Bft)
03.07.2010 10:00 26,9 C 21,2 C 25,7 C 31,6 C 31,6 C 4,7 C 55 % 60 % 100 % 1016,2 hPa 0,0 l/m 5,6 km/h (1 Bft) O 90 5 min 1,5 UV-I 17,1 C 31,6 C 6,9 km/h (2 Bft)
03.07.2010 10:08 27,2 C 21,2 C 26,0 C 31,9 C 31,9 C 4,7 C 54 % 59 % 100 % 1016,2 hPa 0,0 l/m 4,7 km/h (1 Bft) N-NW 337 8 min 1,2 UV-I 17,1 C 31,9 C 5,0 km/h (1 Bft)
03.07.2010 10:10 27,2 C 21,2 C 26,0 C 31,9 C 31,9 C 4,7 C 54 % 59 % 100 % 1016,2 hPa 0,0 l/m 4,7 km/h (1 Bft) N-NW 337 2 min 1,2 UV-I 17,1 C 31,9 C 5,0 km/h (1 Bft)
03.07.2010 10:15 27,3 C 21,2 C 26,0 C 32,0 C 32,0 C 4,7 C 53 % 58 % 100 % 1016,2 hPa 0,0 l/m 5,0 km/h (1 Bft) O-NO 67 5 min 1,2 UV-I 16,9 C 32,0 C 2,9 km/h (1 Bft)
03.07.2010 10:20 27,5 C 21,2 C 26,3 C 32,2 C 32,2 C 4,7 C 52 % 56 % 100 % 1016,2 hPa 0,0 l/m 4,8 km/h (1 Bft) O-NO 67 5 min 1,5 UV-I 16,7 C 32,2 C 4,2 km/h (1 Bft)
03.07.2010 10:25 27,5 C 21,2 C 26,2 C 32,2 C 32,2 C 4,7 C 52 % 56 % 100 % 1016,2 hPa 0,0 l/m 4,5 km/h (1 Bft) W-NW 292 5 min 1,5 UV-I 16,7 C 32,2 C 4,2 km/h (1 Bft)
03.07.2010 10:30 27,6 C 21,2 C 26,5 C 32,2 C 32,2 C 4,6 C 50 % 53 % 100 % 1016,2 hPa 0,0 l/m 5,3 km/h (1 Bft) O-NO 67 5 min 2,6 UV-I 16,2 C 32,2 C 4,8 km/h (1 Bft)
03.07.2010 10:35 27,9 C 21,2 C 26,7 C 32,0 C 32,0 C 4,1 C 50 % 54 % 100 % 1016,2 hPa 0,0 l/m 5,3 km/h (1 Bft) O-NO 67 5 min 2,6 UV-I 16,5 C 32,0 C 7,7 km/h (2 Bft)
03.07.2010 10:40 28,0 C 21,1 C 26,8 C 31,9 C 31,9 C 3,9 C 44 % 47 % 100 % 1016,1 hPa 0,0 l/m 6,4 km/h (2 Bft) O-NO 67 5 min 2,9 UV-I 14,6 C 31,9 C 11,1 km/h (2 Bft)
03.07.2010 10:45 28,2 C 21,2 C 27,1 C 31,7 C 31,7 C 3,5 C 45 % 48 % 92 % 1016,1 hPa 0,0 l/m 7,2 km/h (2 Bft) NO 45 5 min 2,9 UV-I 15,1 C 31,7 C 6,8 km/h (2 Bft)
03.07.2010 10:50 28,3 C 21,2 C 27,2 C 32,1 C 32,1 C 3,8 C 45 % 49 % 100 % 1016,1 hPa 0,0 l/m 6,4 km/h (2 Bft) O-NO 67 5 min 3,0 UV-I 15,2 C 32,1 C 12,1 km/h (2 Bft)
03.07.2010 10:51 28,5 C 21,2 C 27,2 C 31,9 C 31,9 C 3,4 C 44 % 47 % 89 % 1016,1 hPa 0,0 l/m 6,6 km/h (2 Bft) O-NO 67 1 min 3,0 UV-I 15,0 C 31,9 C 8,0 km/h (2 Bft)
03.07.2010 10:56 28,4 C 21,2 C 27,3 C 31,7 C 31,7 C 3,3 C 41 % 46 % 87 % 1016,1 hPa 0,0 l/m 7,6 km/h (2 Bft) O-NO 67 5 min 3,1 UV-I 13,9 C 31,7 C 8,2 km/h (2 Bft)
03.07.2010 11:01 28,5 C 21,2 C 27,3 C 31,6 C 31,6 C 3,1 C 40 % 44 % 82 % 1016,1 hPa 0,0 l/m 7,7 km/h (2 Bft) O-NO 67 0 min 3,1 UV-I 13,6 C 31,6 C 6,1 km/h (2 Bft)
03.07.2010 11:06 28,5 C 21,2 C 27,3 C 31,6 C 31,6 C 3,1 C 40 % 44 % 82 % 1016,1 hPa 0,0 l/m 7,7 km/h (2 Bft) O-NO 67 0 min 3,1 UV-I 13,6 C 31,6 C 14,0 km/h (3 Bft)
03.07.2010 11:10 28,7 C 21,2 C 27,5 C 31,9 C 31,9 C 3,2 C 41 % 45 % 84 % 1016,1 hPa 0,0 l/m 7,2 km/h (2 Bft) O-NO 67 0 min 3,2 UV-I 14,1 C 31,9 C 15,9 km/h (3 Bft)
03.07.2010 11:15 28,9 C 21,2 C 27,5 C 32,2 C 32,2 C 3,3 C 40 % 44 % 87 % 1016,1 hPa 0,0 l/m 6,3 km/h (2 Bft) NO 45 5 min 3,2 UV-I 13,9 C 32,2 C 9,8 km/h (2 Bft)
03.07.2010 11:20 28,9 C 21,2 C 27,6 C 32,2 C 32,2 C 3,3 C 43 % 46 % 87 % 1015,8 hPa 0,0 l/m 6,1 km/h (2 Bft) NO 45 5 min 3,3 UV-I 15,0 C 32,2 C 6,8 km/h (2 Bft)
03.07.2010 11:25 29,0 C 21,2 C 27,7 C 32,3 C 32,3 C 3,3 C 40 % 44 % 87 % 1015,8 hPa 0,0 l/m 6,8 km/h (2 Bft) O-NO 67 5 min 3,3 UV-I 14,0 C 32,3 C 10,0 km/h (2 Bft)
03.07.2010 11:30 29,0 C 21,2 C 27,8 C 32,2 C 32,2 C 3,2 C 40 % 44 % 84 % 1015,8 hPa 0,0 l/m 6,0 km/h (2 Bft) NO 45 0 min 3,2 UV-I 14,0 C 32,2 C 5,3 km/h (1 Bft)
03.07.2010 11:35 29,2 C 21,3 C 27,9 C 32,6 C 32,6 C 3,4 C 41 % 44 % 89 % 1015,8 hPa 0,0 l/m 4,7 km/h (1 Bft) O-NO 67 5 min 3,2 UV-I 14,6 C 32,6 C 4,2 km/h (1 Bft)
03.07.2010 11:40 29,2 C 21,2 C 28,1 C 32,5 C 32,5 C 3,3 C 39 % 43 % 87 % 1017,0 hPa 0,0 l/m 6,0 km/h (2 Bft) O-NO 67 5 min 3,7 UV-I 13,8 C 32,5 C 7,7 km/h (2 Bft)
03.07.2010 11:45 29,3 C 21,2 C 28,0 C 32,3 C 32,3 C 3,0 C 40 % 44 % 79 % 1017,0 hPa 0,0 l/m 6,6 km/h (2 Bft) O-NO 67 0 min 3,7 UV-I 14,3 C 32,3 C 6,4 km/h (2 Bft)
03.07.2010 11:50 29,4 C 21,3 C 28,1 C 32,6 C 32,6 C 3,2 C 40 % 44 % 84 % 1017,0 hPa 0,0 l/m 5,6 km/h (1 Bft) O-NO 67 0 min 3,9 UV-I 14,4 C 32,6 C 7,2 km/h (2 Bft)
03.07.2010 11:55 29,4 C 21,2 C 28,3 C 32,5 C 32,5 C 3,1 C 42 % 45 % 82 % 1017,0 hPa 0,0 l/m 4,8 km/h (1 Bft) O-SO 112 0 min 3,9 UV-I 15,1 C 32,5 C 2,6 km/h (1 Bft)
03.07.2010 12:00 29,7 C 21,2 C 28,4 C 32,9 C 32,9 C 3,2 C 39 % 43 % 84 % 1017,2 hPa 0,0 l/m 5,5 km/h (1 Bft) O-NO 67 0 min 4,1 UV-I 14,2 C 32,9 C 6,6 km/h (2 Bft)
03.07.2010 12:06 29,7 C 21,2 C 28,3 C 32,8 C 32,8 C 3,1 C 39 % 44 % 82 % 1017,2 hPa 0,0 l/m 5,1 km/h (1 Bft) N 0 0 min 4,1 UV-I 14,2 C 32,8 C 9,2 km/h (2 Bft)
03.07.2010 12:10 29,9 C 21,3 C 28,5 C 33,2 C 33,2 C 3,3 C 42 % 45 % 87 % 1017,2 hPa 0,0 l/m 4,0 km/h (1 Bft) O-NO 67 4 min 4,1 UV-I 15,6 C 33,2 C 5,1 km/h (1 Bft)
03.07.2010 12:15 30,1 C 21,3 C 28,6 C 33,2 C 33,2 C 3,1 C 41 % 44 % 82 % 1017,2 hPa 0,0 l/m 4,5 km/h (1 Bft) O-NO 67 0 min 4,1 UV-I 15,4 C 33,2 C 5,1 km/h (1 Bft)
03.07.2010 12:20 30,3 C 21,3 C 28,7 C 33,5 C 33,5 C 3,2 C 41 % 45 % 84 % 1017,1 hPa 0,0 l/m 4,8 km/h (1 Bft) NO 45 0 min 4,0 UV-I 15,6 C 33,5 C 7,1 km/h (2 Bft)
03.07.2010 12:25 30,3 C 21,3 C 28,8 C 33,4 C 33,4 C 3,1 C 38 % 42 % 82 % 1017,1 hPa 0,0 l/m 5,0 km/h (1 Bft) N-NO 22 0 min 4,0 UV-I 14,4 C 33,4 C 7,2 km/h (2 Bft)
03.07.2010 12:30 30,3 C 21,4 C 28,9 C 33,3 C 33,3 C 3,0 C 38 % 42 % 79 % 1017,1 hPa 0,0 l/m 5,5 km/h (1 Bft) O 90 0 min 3,9 UV-I 14,4 C 33,3 C 3,2 km/h (1 Bft)
03.07.2010 12:35 30,2 C 21,4 C 29,0 C 33,5 C 33,5 C 3,3 C 39 % 42 % 87 % 1017,1 hPa 0,0 l/m 4,3 km/h (1 Bft) O-NO 67 5 min 3,9 UV-I 14,7 C 33,5 C 4,3 km/h (1 Bft)
03.07.2010 12:40 30,5 C 21,4 C 29,3 C 33,9 C 33,9 C 3,4 C 41 % 43 % 89 % 1016,6 hPa 0,0 l/m 3,5 km/h (1 Bft) NO 45 5 min 4,1 UV-I 15,7 C 33,9 C 8,0 km/h (2 Bft)
03.07.2010 12:45 30,6 C 21,4 C 29,2 C 34,1 C 34,1 C 3,5 C 40 % 42 % 92 % 1016,6 hPa 0,0 l/m 3,5 km/h (1 Bft) O-NO 67 5 min 4,1 UV-I 15,4 C 34,1 C 3,5 km/h (1 Bft)
03.07.2010 12:50 30,5 C 21,4 C 29,2 C 34,2 C 34,2 C 3,7 C 38 % 42 % 97 % 1016,6 hPa 0,0 l/m 3,4 km/h (1 Bft) NO 45 5 min 4,2 UV-I 14,5 C 34,2 C 3,9 km/h (1 Bft)
03.07.2010 12:55 30,6 C 21,4 C 29,3 C 34,2 C 34,2 C 3,6 C 38 % 42 % 95 % 1016,6 hPa 0,0 l/m 3,5 km/h (1 Bft) O-NO 67 5 min 4,2 UV-I 14,6 C 34,2 C 6,1 km/h (2 Bft)
03.07.2010 13:00 30,7 C 21,4 C 29,4 C 34,3 C 34,3 C 3,6 C 38 % 42 % 95 % 1016,9 hPa 0,0 l/m 3,5 km/h (1 Bft) O 90 5 min 4,4 UV-I 14,7 C 34,3 C 3,1 km/h (1 Bft)
03.07.2010 13:06 30,7 C 21,4 C 29,5 C 34,6 C 34,6 C 3,9 C 37 % 39 % 100 % 1016,9 hPa 0,0 l/m 3,4 km/h (1 Bft) N 0 6 min 4,4 UV-I 14,3 C 34,6 C 2,3 km/h (1 Bft)
03.07.2010 13:10 30,8 C 21,4 C 29,5 C 34,9 C 34,9 C 4,1 C 35 % 39 % 100 % 1016,9 hPa 0,0 l/m 2,9 km/h (1 Bft) O-NO 67 4 min 4,5 UV-I 13,5 C 34,9 C 6,8 km/h (2 Bft)
03.07.2010 13:15 30,7 C 21,4 C 29,5 C 34,5 C 34,5 C 3,8 C 34 % 36 % 100 % 1016,9 hPa 0,0 l/m 3,5 km/h (1 Bft) N 360 5 min 4,5 UV-I 13,0 C 34,5 C 4,8 km/h (1 Bft)
03.07.2010 13:20 30,8 C 21,5 C 29,7 C 34,7 C 34,7 C 3,9 C 35 % 38 % 100 % 1016,6 hPa 0,0 l/m 3,5 km/h (1 Bft) SW 225 5 min 4,5 UV-I 13,5 C 34,7 C 3,1 km/h (1 Bft)
03.07.2010 13:25 30,9 C 21,5 C 29,9 C 34,7 C 34,7 C 3,8 C 35 % 37 % 100 % 1016,6 hPa 0,0 l/m 3,2 km/h (1 Bft) O-NO 67 5 min 4,5 UV-I 13,6 C 34,7 C 6,4 km/h (2 Bft)
03.07.2010 13:30 30,9 C 21,6 C 29,9 C 34,3 C 34,3 C 3,4 C 36 % 38 % 89 % 1016,6 hPa 0,0 l/m 4,2 km/h (1 Bft) N-NW 337 5 min 4,5 UV-I 14,1 C 34,3 C 6,1 km/h (2 Bft)
03.07.2010 13:35 30,9 C 21,5 C 30,1 C 34,3 C 34,3 C 3,4 C 35 % 37 % 89 % 1016,6 hPa 0,0 l/m 5,0 km/h (1 Bft) O-NO 67 5 min 4,5 UV-I 13,6 C 34,3 C 7,7 km/h (2 Bft)
03.07.2010 13:40 31,0 C 21,5 C 29,9 C 34,2 C 34,2 C 3,2 C 36 % 38 % 84 % 1016,6 hPa 0,0 l/m 4,0 km/h (1 Bft) O-NO 67 0 min 4,6 UV-I 14,2 C 34,2 C 4,3 km/h (1 Bft)
03.07.2010 13:45 31,1 C 21,5 C 30,0 C 34,6 C 34,6 C 3,5 C 34 % 36 % 92 % 1016,6 hPa 0,0 l/m 3,4 km/h (1 Bft) O-SO 112 5 min 4,6 UV-I 13,4 C 34,6 C 3,2 km/h (1 Bft)
03.07.2010 13:50 31,2 C 21,6 C 30,3 C 34,8 C 34,8 C 3,6 C 33 % 36 % 95 % 1016,6 hPa 0,0 l/m 3,2 km/h (1 Bft) N-NO 22 5 min 4,7 UV-I 13,0 C 34,8 C 4,7 km/h (1 Bft)
03.07.2010 13:55 31,3 C 21,6 C 30,3 C 35,0 C 35,0 C 3,7 C 34 % 36 % 97 % 1016,6 hPa 0,0 l/m 3,5 km/h (1 Bft) NO 45 5 min 4,7 UV-I 13,5 C 35,0 C 4,8 km/h (1 Bft)
03.07.2010 14:00 31,4 C 21,6 C 30,3 C 35,4 C 35,4 C 4,0 C 34 % 37 % 100 % 1015,6 hPa 0,0 l/m 2,6 km/h (1 Bft) O-NO 67 5 min 4,9 UV-I 13,6 C 35,4 C 9,0 km/h (2 Bft)
03.07.2010 14:06 31,3 C 21,7 C 30,3 C 34,9 C 34,9 C 3,6 C 35 % 37 % 95 % 1015,6 hPa 0,0 l/m 4,2 km/h (1 Bft) N 0 6 min 4,9 UV-I 14,0 C 34,9 C 12,7 km/h (3 Bft)
03.07.2010 14:10 31,3 C 21,7 C 30,2 C 34,2 C 34,2 C 2,9 C 35 % 37 % 76 % 1015,6 hPa 0,0 l/m 6,0 km/h (2 Bft) O-NO 67 0 min 4,7 UV-I 14,0 C 34,2 C 4,8 km/h (1 Bft)
03.07.2010 14:15 31,4 C 21,7 C 30,5 C 34,2 C 34,2 C 2,8 C 36 % 38 % 74 % 1015,6 hPa 0,0 l/m 5,0 km/h (1 Bft) O-NO 67 0 min 4,7 UV-I 14,5 C 34,2 C 6,6 km/h (2 Bft)
03.07.2010 14:20 31,7 C 21,7 C 30,7 C 34,6 C 34,6 C 2,9 C 36 % 38 % 76 % 1016,1 hPa 0,0 l/m 3,7 km/h (1 Bft) O-NO 67 0 min 4,7 UV-I 14,8 C 34,6 C 11,4 km/h (2 Bft)
03.07.2010 14:25 31,7 C 21,7 C 30,6 C 34,8 C 34,8 C 3,1 C 35 % 37 % 82 % 1016,1 hPa 0,0 l/m 3,7 km/h (1 Bft) S 180 0 min 4,7 UV-I 14,3 C 34,8 C 5,1 km/h (1 Bft)
03.07.2010 14:30 31,7 C 21,8 C 30,8 C 35,3 C 35,3 C 3,6 C 35 % 36 % 95 % 1016,1 hPa 0,0 l/m 3,4 km/h (1 Bft) SW 225 5 min 4,6 UV-I 14,3 C 35,3 C 4,5 km/h (1 Bft)
03.07.2010 14:35 31,7 C 21,8 C 30,8 C 35,5 C 35,5 C 3,8 C 34 % 36 % 100 % 1016,1 hPa 0,0 l/m 2,7 km/h (1 Bft) N-NO 22 5 min 4,6 UV-I 13,9 C 35,5 C 7,4 km/h (2 Bft)
03.07.2010 14:40 31,9 C 21,8 C 31,9 C 35,8 C 35,8 C 3,9 C 33 % 34 % 100 % 1015,9 hPa 0,0 l/m 3,1 km/h (1 Bft) SO 135 5 min 4,6 UV-I 13,6 C 35,8 C 2,6 km/h (1 Bft)
03.07.2010 14:45 31,8 C 21,9 C 32,4 C 35,8 C 35,8 C 4,0 C 33 % 34 % 100 % 1015,9 hPa 0,0 l/m 3,5 km/h (1 Bft) O-SO 112 5 min 4,6 UV-I 13,5 C 35,8 C 3,5 km/h (1 Bft)
03.07.2010 14:50 32,1 C 21,9 C 33,0 C 36,1 C 36,1 C 4,0 C 34 % 34 % 100 % 1015,9 hPa 0,0 l/m 2,7 km/h (1 Bft) O-NO 67 5 min 4,5 UV-I 14,2 C 36,1 C 3,5 km/h (1 Bft)
03.07.2010 14:55 32,1 C 21,8 C 33,4 C 36,4 C 36,4 C 4,3 C 34 % 33 % 100 % 1015,9 hPa 0,0 l/m 2,4 km/h (1 Bft) O-NO 67 5 min 4,5 UV-I 14,2 C 36,4 C 6,1 km/h (2 Bft)
03.07.2010 15:00 32,1 C 21,9 C 33,3 C 36,1 C 36,1 C 4,0 C 32 % 32 % 100 % 1015,8 hPa 0,0 l/m 2,9 km/h (1 Bft) O 90 5 min 4,4 UV-I 13,3 C 36,1 C 5,1 km/h (1 Bft)
03.07.2010 15:06 32,1 C 21,9 C 33,3 C 35,9 C 35,9 C 3,8 C 33 % 31 % 100 % 1015,8 hPa 0,0 l/m 2,9 km/h (1 Bft) N 0 6 min 4,4 UV-I 13,8 C 35,9 C 2,4 km/h (1 Bft)
03.07.2010 15:10 32,2 C 22,0 C 33,5 C 36,2 C 36,2 C 4,0 C 33 % 32 % 100 % 1015,8 hPa 0,0 l/m 2,4 km/h (1 Bft) W-NW 292 4 min 4,2 UV-I 13,9 C 36,2 C 3,7 km/h (1 Bft)
03.07.2010 15:15 32,4 C 22,0 C 34,1 C 36,5 C 36,5 C 4,1 C 34 % 32 % 100 % 1015,8 hPa 0,0 l/m 2,1 km/h (1 Bft) NO 45 5 min 4,2 UV-I 14,5 C 36,5 C 3,1 km/h (1 Bft)
03.07.2010 15:20 32,4 C 22,0 C 33,9 C 36,6 C 36,6 C 4,2 C 32 % 32 % 100 % 1015,3 hPa 0,0 l/m 2,6 km/h (1 Bft) O-NO 67 5 min 4,0 UV-I 13,6 C 36,6 C 7,6 km/h (2 Bft)
03.07.2010 15:25 32,2 C 22,1 C 33,2 C 35,8 C 35,8 C 3,6 C 32 % 31 % 95 % 1015,3 hPa 0,0 l/m 3,5 km/h (1 Bft) O-NO 67 5 min 4,0 UV-I 13,4 C 35,8 C 4,0 km/h (1 Bft)
03.07.2010 15:30 32,3 C 22,1 C 33,3 C 35,4 C 35,4 C 3,1 C 33 % 32 % 82 % 1015,3 hPa 0,0 l/m 4,0 km/h (1 Bft) N-NO 22 0 min 3,9 UV-I 13,9 C 35,4 C 3,4 km/h (1 Bft)
03.07.2010 15:35 32,2 C 22,1 C 33,3 C 35,4 C 35,4 C 3,2 C 33 % 32 % 84 % 1015,3 hPa 0,0 l/m 3,1 km/h (1 Bft) NO 45 0 min 3,9 UV-I 13,9 C 35,4 C 7,4 km/h (2 Bft)
03.07.2010 15:40 32,1 C 22,2 C 32,9 C 35,0 C 35,0 C 2,9 C 33 % 33 % 76 % 1015,8 hPa 0,0 l/m 4,0 km/h (1 Bft) O-NO 67 0 min 3,5 UV-I 13,8 C 35,0 C 5,3 km/h (1 Bft)
03.07.2010 15:45 32,0 C 22,2 C 33,1 C 34,8 C 34,8 C 2,8 C 34 % 33 % 74 % 1015,8 hPa 0,0 l/m 4,3 km/h (1 Bft) O-NO 67 0 min 3,5 UV-I 14,1 C 34,8 C 4,0 km/h (1 Bft)
03.07.2010 15:50 32,1 C 22,3 C 32,8 C 34,7 C 34,7 C 2,6 C 33 % 33 % 68 % 1015,8 hPa 0,0 l/m 3,7 km/h (1 Bft) NO 45 0 min 3,3 UV-I 13,8 C 34,7 C 2,6 km/h (1 Bft)
03.07.2010 15:55 32,3 C 22,3 C 32,8 C 35,0 C 35,0 C 2,7 C 34 % 34 % 71 % 1015,8 hPa 0,0 l/m 4,0 km/h (1 Bft) O-NO 67 0 min 3,3 UV-I 14,4 C 35,0 C 8,0 km/h (2 Bft)
03.07.2010 16:00 32,2 C 22,3 C 32,7 C 34,7 C 34,7 C 2,5 C 34 % 34 % 66 % 1015,7 hPa 0,0 l/m 4,8 km/h (1 Bft) O-NO 67 0 min 2,9 UV-I 14,3 C 34,7 C 6,3 km/h (2 Bft)
03.07.2010 16:10 32,0 C 22,4 C 32,7 C 34,5 C 34,5 C 2,5 C 34 % 34 % 66 % 1015,7 hPa 0,0 l/m 4,7 km/h (1 Bft) O-NO 67 0 min 2,8 UV-I 14,1 C 34,5 C 5,5 km/h (1 Bft)
03.07.2010 16:15 32,3 C 22,5 C 32,9 C 34,9 C 34,9 C 2,6 C 34 % 33 % 68 % 1015,7 hPa 0,0 l/m 3,9 km/h (1 Bft) NO 45 0 min 2,8 UV-I 14,4 C 34,9 C 3,5 km/h (1 Bft)
03.07.2010 16:20 32,3 C 22,6 C 32,9 C 35,4 C 35,4 C 3,1 C 34 % 33 % 82 % 1015,3 hPa 0,0 l/m 2,6 km/h (1 Bft) NO 45 0 min 2,5 UV-I 14,4 C 35,4 C 2,9 km/h (1 Bft)
03.07.2010 16:25 32,3 C 22,7 C 32,7 C 35,3 C 35,3 C 3,0 C 34 % 34 % 79 % 1015,3 hPa 0,0 l/m 3,1 km/h (1 Bft) O-NO 67 0 min 2,5 UV-I 14,4 C 35,3 C 3,1 km/h (1 Bft)
03.07.2010 16:30 32,1 C 22,7 C 32,5 C 35,1 C 35,1 C 3,0 C 34 % 34 % 79 % 1015,3 hPa 0,0 l/m 3,7 km/h (1 Bft) O-NO 67 0 min 2,4 UV-I 14,2 C 35,1 C 8,4 km/h (2 Bft)
03.07.2010 16:35 32,0 C 22,8 C 32,4 C 34,7 C 34,7 C 2,7 C 35 % 35 % 71 % 1015,3 hPa 0,0 l/m 4,7 km/h (1 Bft) O-NO 67 0 min 2,4 UV-I 14,6 C 34,7 C 8,0 km/h (2 Bft)
03.07.2010 16:40 32,0 C 22,8 C 32,1 C 34,2 C 34,2 C 2,2 C 35 % 35 % 58 % 1015,2 hPa 0,0 l/m 5,8 km/h (2 Bft) O-NO 67 0 min 2,1 UV-I 14,6 C 34,2 C 6,9 km/h (2 Bft)
03.07.2010 16:45 31,9 C 22,8 C 32,0 C 33,9 C 33,9 C 2,0 C 34 % 35 % 53 % 1015,2 hPa 0,0 l/m 6,1 km/h (2 Bft) O-NO 67 0 min 2,1 UV-I 14,1 C 33,9 C 6,8 km/h (2 Bft)
03.07.2010 16:50 32,1 C 22,9 C 32,1 C 34,1 C 34,1 C 2,0 C 35 % 36 % 53 % 1015,2 hPa 0,0 l/m 4,8 km/h (1 Bft) NO 45 0 min 2,0 UV-I 14,7 C 34,1 C 4,0 km/h (1 Bft)
03.07.2010 16:55 32,3 C 22,9 C 32,3 C 34,7 C 34,7 C 2,4 C 35 % 36 % 63 % 1015,2 hPa 0,0 l/m 3,7 km/h (1 Bft) SO 135 0 min 2,0 UV-I 14,9 C 34,7 C 4,5 km/h (1 Bft)
03.07.2010 17:00 32,3 C 23,0 C 32,4 C 35,0 C 35,0 C 2,7 C 35 % 34 % 71 % 1015,1 hPa 0,0 l/m 3,7 km/h (1 Bft) O-NO 67 0 min 1,8 UV-I 14,9 C 35,0 C 4,2 km/h (1 Bft)
03.07.2010 17:06 32,1 C 23,0 C 32,1 C 34,7 C 34,7 C 2,6 C 34 % 34 % 68 % 1015,1 hPa 0,0 l/m 4,5 km/h (1 Bft) N 0 0 min 1,8 UV-I 14,2 C 34,7 C 6,4 km/h (2 Bft)
03.07.2010 17:10 32,3 C 23,0 C 32,3 C 34,6 C 34,6 C 2,3 C 35 % 35 % 61 % 1015,1 hPa 0,0 l/m 3,7 km/h (1 Bft) O-NO 67 0 min 1,6 UV-I 14,9 C 34,6 C 4,7 km/h (1 Bft)
03.07.2010 17:15 32,0 C 23,0 C 32,0 C 34,5 C 34,5 C 2,5 C 35 % 34 % 66 % 1015,1 hPa 0,0 l/m 3,7 km/h (1 Bft) O-NO 67 0 min 1,6 UV-I 14,6 C 34,5 C 5,3 km/h (1 Bft)
03.07.2010 17:20 32,0 C 23,1 C 31,7 C 33,9 C 33,9 C 1,9 C 35 % 35 % 50 % 1015,0 hPa 0,0 l/m 5,1 km/h (1 Bft) O 90 0 min 1,4 UV-I 14,6 C 33,9 C 1,9 km/h (1 Bft)
03.07.2010 17:25 32,2 C 23,1 C 31,7 C 33,9 C 33,9 C 1,7 C 36 % 36 % 45 % 1015,0 hPa 0,0 l/m 4,3 km/h (1 Bft) NO 45 0 min 1,4 UV-I 15,2 C 33,9 C 3,4 km/h (1 Bft)
03.07.2010 17:30 32,2 C 23,1 C 31,7 C 34,2 C 34,2 C 2,0 C 34 % 34 % 53 % 1015,0 hPa 0,0 l/m 3,2 km/h (1 Bft) O-NO 67 0 min 1,3 UV-I 14,3 C 34,2 C 3,4 km/h (1 Bft)
03.07.2010 17:35 32,1 C 23,2 C 31,6 C 34,2 C 34,2 C 2,1 C 34 % 35 % 55 % 1015,0 hPa 0,0 l/m 4,2 km/h (1 Bft) O-NO 67 0 min 1,3 UV-I 14,2 C 34,2 C 6,4 km/h (2 Bft)
03.07.2010 17:40 32,0 C 23,2 C 31,5 C 34,0 C 34,0 C 2,0 C 32 % 33 % 53 % 1015,0 hPa 0,0 l/m 4,8 km/h (1 Bft) O-NO 67 0 min 1,1 UV-I 13,2 C 34,0 C 4,3 km/h (1 Bft)
03.07.2010 17:45 32,0 C 23,2 C 31,5 C 33,8 C 33,8 C 1,8 C 32 % 34 % 47 % 1015,0 hPa 0,0 l/m 5,3 km/h (1 Bft) O 90 0 min 1,1 UV-I 13,2 C 33,8 C 9,5 km/h (2 Bft)
03.07.2010 17:50 32,0 C 23,2 C 31,3 C 33,7 C 33,7 C 1,7 C 33 % 33 % 45 % 1015,0 hPa 0,0 l/m 5,0 km/h (1 Bft) NO 45 0 min 1,0 UV-I 13,7 C 33,7 C 4,5 km/h (1 Bft)
03.07.2010 17:55 31,9 C 23,3 C 31,3 C 33,8 C 33,8 C 1,9 C 33 % 34 % 50 % 1015,0 hPa 0,0 l/m 4,8 km/h (1 Bft) O-NO 67 0 min 1,0 UV-I 13,6 C 33,8 C 5,6 km/h (1 Bft)
03.07.2010 18:00 32,1 C 23,3 C 31,3 C 33,7 C 33,7 C 1,6 C 32 % 33 % 42 % 1014,8 hPa 0,0 l/m 4,3 km/h (1 Bft) O-NO 67 0 min 0,9 UV-I 13,3 C 33,7 C 2,1 km/h (1 Bft)
03.07.2010 18:06 32,1 C 23,3 C 31,5 C 33,9 C 33,9 C 1,8 C 32 % 33 % 47 % 1014,8 hPa 0,0 l/m 3,2 km/h (1 Bft) N 0 0 min 0,9 UV-I 13,3 C 33,9 C 1,8 km/h (1 Bft)
03.07.2010 18:10 32,3 C 23,3 C 31,5 C 34,4 C 34,4 C 2,1 C 32 % 33 % 55 % 1014,8 hPa 0,0 l/m 2,4 km/h (1 Bft) O-NO 67 0 min 0,8 UV-I 13,5 C 34,4 C 3,4 km/h (1 Bft)
03.07.2010 18:15 32,2 C 23,3 C 31,4 C 34,5 C 34,5 C 2,3 C 32 % 33 % 61 % 1014,8 hPa 0,0 l/m 2,9 km/h (1 Bft) O-NO 67 0 min 0,8 UV-I 13,4 C 34,5 C 4,2 km/h (1 Bft)
03.07.2010 18:20 32,2 C 23,3 C 31,5 C 34,3 C 34,3 C 2,1 C 32 % 34 % 55 % 1014,7 hPa 0,0 l/m 3,1 km/h (1 Bft) O-NO 67 0 min 0,6 UV-I 13,4 C 34,3 C 2,4 km/h (1 Bft)
03.07.2010 18:25 32,3 C 23,3 C 31,2 C 34,4 C 34,4 C 2,1 C 33 % 35 % 55 % 1014,7 hPa 0,0 l/m 2,6 km/h (1 Bft) NO 45 0 min 0,6 UV-I 13,9 C 34,4 C 3,9 km/h (1 Bft)
03.07.2010 18:30 32,1 C 23,3 C 31,3 C 34,1 C 34,1 C 2,0 C 33 % 35 % 53 % 1014,7 hPa 0,0 l/m 3,1 km/h (1 Bft) O-NO 67 0 min 0,5 UV-I 13,8 C 34,1 C 6,8 km/h (2 Bft)
03.07.2010 18:35 32,1 C 23,3 C 31,2 C 33,8 C 33,8 C 1,7 C 33 % 35 % 45 % 1014,7 hPa 0,0 l/m 4,0 km/h (1 Bft) N-NO 22 0 min 0,5 UV-I 13,8 C 33,8 C 5,3 km/h (1 Bft)
03.07.2010 18:40 32,1 C 23,3 C 31,1 C 33,6 C 33,6 C 1,5 C 33 % 35 % 39 % 1014,4 hPa 0,0 l/m 3,7 km/h (1 Bft) O-NO 67 0 min 0,4 UV-I 13,8 C 33,6 C 2,3 km/h (1 Bft)
03.07.2010 18:45 32,1 C 23,4 C 31,1 C 33,7 C 33,7 C 1,6 C 33 % 35 % 42 % 1014,4 hPa 0,0 l/m 2,3 km/h (1 Bft) N-NO 22 0 min 0,4 UV-I 13,8 C 33,7 C 2,1 km/h (1 Bft)
03.07.2010 18:50 32,2 C 23,4 C 31,1 C 33,9 C 33,9 C 1,7 C 34 % 36 % 45 % 1014,4 hPa 0,0 l/m 1,8 km/h (1 Bft) O-NO 67 0 min 0,3 UV-I 14,3 C 33,9 C 4,3 km/h (1 Bft)
03.07.2010 18:55 32,3 C 23,4 C 31,0 C 33,9 C 33,9 C 1,6 C 34 % 36 % 42 % 1014,4 hPa 0,0 l/m 2,3 km/h (1 Bft) O-NO 67 0 min 0,3 UV-I 14,4 C 33,9 C 2,7 km/h (1 Bft)
03.07.2010 19:00 32,2 C 23,4 C 30,9 C 33,7 C 33,7 C 1,5 C 34 % 36 % 39 % 1014,6 hPa 0,0 l/m 2,9 km/h (1 Bft) O-NO 67 0 min 0,2 UV-I 14,3 C 33,7 C 4,0 km/h (1 Bft)
03.07.2010 19:06 32,1 C 23,4 C 30,7 C 33,7 C 33,7 C 1,6 C 35 % 37 % 42 % 1014,6 hPa 0,0 l/m 2,1 km/h (1 Bft) N 0 0 min 0,2 UV-I 14,7 C 33,7 C 3,2 km/h (1 Bft)
03.07.2010 19:10 32,1 C 23,4 C 30,7 C 33,7 C 33,7 C 1,6 C 35 % 37 % 42 % 1014,6 hPa 0,0 l/m 2,1 km/h (1 Bft) O-NO 67 0 min 0,2 UV-I 14,7 C 33,7 C 3,2 km/h (1 Bft)
03.07.2010 19:15 32,1 C 23,5 C 30,7 C 33,5 C 33,5 C 1,4 C 34 % 37 % 37 % 1014,6 hPa 0,0 l/m 2,4 km/h (1 Bft) O-SO 112 0 min 0,2 UV-I 14,2 C 33,5 C 3,9 km/h (1 Bft)
03.07.2010 19:20 31,8 C 23,5 C 30,3 C 33,1 C 33,1 C 1,3 C 35 % 38 % 34 % 1014,4 hPa 0,0 l/m 3,4 km/h (1 Bft) O-NO 67 0 min 0,1 UV-I 14,4 C 33,1 C 4,2 km/h (1 Bft)
03.07.2010 19:25 31,7 C 23,5 C 30,3 C 32,9 C 32,9 C 1,2 C 36 % 38 % 32 % 1014,4 hPa 0,0 l/m 3,9 km/h (1 Bft) O-NO 67 0 min 0,1 UV-I 14,8 C 32,9 C 4,7 km/h (1 Bft)
03.07.2010 19:30 31,8 C 23,5 C 30,2 C 32,7 C 32,7 C 0,9 C 36 % 39 % 24 % 1014,4 hPa 0,0 l/m 3,2 km/h (1 Bft) O-NO 67 0 min 0,1 UV-I 14,9 C 32,7 C 2,9 km/h (1 Bft)
03.07.2010 19:35 31,8 C 23,5 C 30,1 C 32,7 C 32,7 C 0,9 C 37 % 41 % 24 % 1014,4 hPa 0,0 l/m 2,9 km/h (1 Bft) NO 45 0 min 0,1 UV-I 15,3 C 32,7 C 2,1 km/h (1 Bft)
03.07.2010 19:40 31,7 C 23,5 C 29,9 C 32,8 C 32,8 C 1,1 C 37 % 42 % 29 % 1014,7 hPa 0,0 l/m 1,8 km/h (1 Bft) O-NO 67 0 min 0,0 UV-I 15,2 C 32,8 C 1,8 km/h (1 Bft)
03.07.2010 19:45 31,7 C 23,5 C 29,8 C 32,8 C 32,8 C 1,1 C 37 % 41 % 29 % 1014,7 hPa 0,0 l/m 1,6 km/h (1 Bft) O-NO 67 0 min 0,0 UV-I 15,2 C 32,8 C 2,1 km/h (1 Bft)
03.07.2010 19:50 31,7 C 23,5 C 29,8 C 32,7 C 32,7 C 1,0 C 37 % 41 % 26 % 1014,7 hPa 0,0 l/m 1,4 km/h (1 Bft) O-NO 67 0 min 0,0 UV-I 15,2 C 32,7 C 0,0 km/h (0 Bft)
03.07.2010 19:55 31,7 C 23,5 C 29,7 C 32,7 C 32,7 C 1,0 C 37 % 42 % 26 % 1014,7 hPa 0,0 l/m 1,1 km/h (1 Bft) O 90 0 min 0,0 UV-I 15,2 C 32,7 C 2,4 km/h (1 Bft)
03.07.2010 20:00 31,4 C 23,5 C 29,6 C 32,5 C 32,5 C 1,1 C 37 % 42 % 29 % 1014,4 hPa 0,0 l/m 1,4 km/h (1 Bft) O-NO 67 0 min 0,0 UV-I 14,9 C 32,5 C 2,3 km/h (1 Bft)
03.07.2010 20:06 31,1 C 23,5 C 29,2 C 31,8 C 31,8 C 0,7 C 38 % 44 % 18 % 1014,4 hPa 0,0 l/m 1,0 km/h (0 Bft) N 0 0 min 0,0 UV-I 15,1 C 31,8 C 0,0 km/h (0 Bft)
03.07.2010 20:10 31,1 C 23,5 C 29,2 C 31,8 C 31,8 C 0,7 C 38 % 44 % 18 % 1014,4 hPa 0,0 l/m 1,0 km/h (0 Bft) O-NO 67 0 min 0,0 UV-I 15,1 C 31,8 C 0,0 km/h (0 Bft)
03.07.2010 20:15 31,0 C 23,5 C 29,1 C 31,5 C 31,5 C 0,5 C 38 % 44 % 13 % 1014,4 hPa 0,0 l/m 0,3 km/h (0 Bft) N 360 0 min 0,0 UV-I 15,0 C 31,5 C 0,0 km/h (0 Bft)
03.07.2010 20:20 30,8 C 23,5 C 28,6 C 30,7 C 30,4 C 0,0 C 40 % 45 % 0 % 1014,6 hPa 0,0 l/m 0,0 km/h (0 Bft) N-NO 22 0 min 0,0 UV-I 15,6 C 30,4 C 0,0 km/h (0 Bft)
03.07.2010 20:25 30,7 C 23,5 C 28,4 C 30,4 C 29,7 C 0,0 C 41 % 46 % 0 % 1014,6 hPa 0,0 l/m 0,0 km/h (0 Bft) NO 45 0 min 0,0 UV-I 15,9 C 29,7 C 0,0 km/h (0 Bft)
03.07.2010 20:30 30,4 C 23,5 C 28,1 C 29,8 C 28,7 C 0,0 C 42 % 47 % 0 % 1014,6 hPa 0,0 l/m 0,0 km/h (0 Bft) N-NO 22 0 min 0,0 UV-I 16,0 C 28,7 C 0,0 km/h (0 Bft)
03.07.2010 20:35 30,2 C 23,5 C 28,0 C 29,5 C 28,1 C 0,0 C 44 % 49 % 0 % 1014,6 hPa 0,0 l/m 0,0 km/h (0 Bft) N 360 0 min 0,0 UV-I 16,6 C 28,1 C 0,0 km/h (0 Bft)
03.07.2010 20:40 30,0 C 23,5 C 27,7 C 29,1 C 27,4 C 0,0 C 44 % 51 % 0 % 1014,4 hPa 0,0 l/m 0,0 km/h (0 Bft) O-NO 67 0 min 0,0 UV-I 16,4 C 27,4 C 0,0 km/h (0 Bft)
03.07.2010 20:45 29,7 C 23,5 C 27,3 C 28,8 C 27,0 C 0,0 C 46 % 52 % 0 % 1014,4 hPa 0,0 l/m 0,0 km/h (0 Bft) O-NO 67 0 min 0,0 UV-I 16,8 C 27,0 C 0,0 km/h (0 Bft)
03.07.2010 20:50 29,5 C 23,5 C 26,9 C 28,5 C 26,5 C 0,0 C 47 % 53 % 0 % 1014,4 hPa 0,0 l/m 0,0 km/h (0 Bft) O-NO 67 0 min 0,0 UV-I 17,0 C 26,5 C 0,0 km/h (0 Bft)
03.07.2010 20:55 29,5 C 23,5 C 26,9 C 28,4 C 26,1 C 0,0 C 48 % 55 % 0 % 1014,4 hPa 0,0 l/m 0,3 km/h (0 Bft) SW 225 0 min 0,0 UV-I 17,3 C 26,1 C 1,9 km/h (1 Bft)
03.07.2010 21:00 29,5 C 23,5 C 26,8 C 28,2 C 25,6 C 0,0 C 50 % 57 % 0 % 1014,7 hPa 0,0 l/m 1,0 km/h (0 Bft) W-SW 247 0 min 0,0 UV-I 18,0 C 25,6 C 0,0 km/h (0 Bft)
03.07.2010 21:06 28,4 C 23,6 C 26,0 C 27,2 C 24,9 C 0,0 C 51 % 59 % 0 % 1014,7 hPa 0,0 l/m 0,0 km/h (0 Bft) N 0 0 min 0,0 UV-I 17,3 C 24,9 C 0,0 km/h (0 Bft)
03.07.2010 21:10 28,4 C 23,6 C 26,0 C 27,2 C 24,9 C 0,0 C 51 % 59 % 0 % 1014,7 hPa 0,0 l/m 0,0 km/h (0 Bft) W-SW 247 0 min 0,0 UV-I 17,3 C 24,9 C 0,0 km/h (0 Bft)
03.07.2010 21:15 28,3 C 23,5 C 25,7 C 27,1 C 24,6 C 0,0 C 53 % 59 % 0 % 1014,7 hPa 0,0 l/m 0,0 km/h (0 Bft) W-SW 247 0 min 0,0 UV-I 17,8 C 24,6 C 0,0 km/h (0 Bft)
03.07.2010 21:20 28,4 C 23,5 C 25,7 C 26,9 C 24,0 C 0,0 C 54 % 61 % 0 % 1014,6 hPa 0,0 l/m 0,0 km/h (0 Bft) W-SW 247 0 min 0,0 UV-I 18,2 C 24,0 C 0,0 km/h (0 Bft)
03.07.2010 21:25 28,3 C 23,5 C 25,5 C 26,7 C 23,6 C 0,0 C 54 % 63 % 0 % 1014,6 hPa 0,0 l/m 0,0 km/h (0 Bft) W-SW 247 0 min 0,0 UV-I 18,1 C 23,6 C 0,0 km/h (0 Bft)
03.07.2010 21:30 28,0 C 23,5 C 25,0 C 26,4 C 23,3 C 0,0 C 55 % 63 % 0 % 1014,6 hPa 0,0 l/m 0,0 km/h (0 Bft) W-SW 247 0 min 0,0 UV-I 18,1 C 23,3 C 0,0 km/h (0 Bft)
03.07.2010 21:35 28,1 C 23,5 C 24,9 C 26,4 C 22,9 C 0,0 C 56 % 64 % 0 % 1014,6 hPa 0,0 l/m 0,0 km/h (0 Bft) W-SW 247 0 min 0,0 UV-I 18,5 C 22,9 C 0,0 km/h (0 Bft)
03.07.2010 21:40 27,5 C 23,5 C 24,5 C 25,8 C 22,5 C 0,0 C 56 % 66 % 0 % 1014,9 hPa 0,0 l/m 0,0 km/h (0 Bft) W-SW 247 0 min 0,0 UV-I 17,9 C 22,5 C 0,0 km/h (0 Bft)
03.07.2010 21:45 27,0 C 23,5 C 24,2 C 25,4 C 22,2 C 0,0 C 57 % 67 % 0 % 1014,9 hPa 0,0 l/m 0,0 km/h (0 Bft) W-SW 247 0 min 0,0 UV-I 17,7 C 22,2 C 0,0 km/h (0 Bft)
03.07.2010 21:50 26,6 C 23,5 C 23,9 C 25,0 C 21,9 C 0,0 C 58 % 67 % 0 % 1014,9 hPa 0,0 l/m 0,0 km/h (0 Bft) W-SW 247 0 min 0,0 UV-I 17,6 C 21,9 C 0,0 km/h (0 Bft)
03.07.2010 21:55 26,5 C 23,6 C 23,7 C 24,9 C 21,6 C 0,0 C 58 % 67 % 0 % 1014,9 hPa 0,0 l/m 0,0 km/h (0 Bft) W-SW 247 0 min 0,0 UV-I 17,5 C 21,6 C 0,0 km/h (0 Bft)
03.07.2010 22:00 26,2 C 23,6 C 23,5 C 24,6 C 21,3 C 0,0 C 58 % 67 % 0 % 1014,9 hPa 0,0 l/m 0,0 km/h (0 Bft) W-SW 247 0 min 0,0 UV-I 17,3 C 21,3 C 0,0 km/h (0 Bft)
03.07.2010 22:06 26,0 C 23,5 C 23,3 C 24,3 C 20,9 C 0,0 C 59 % 68 % 0 % 1014,9 hPa 0,0 l/m 0,0 km/h (0 Bft) N 0 0 min 0,0 UV-I 17,4 C 20,9 C 0,0 km/h (0 Bft)
03.07.2010 22:10 26,0 C 23,5 C 23,3 C 24,3 C 20,9 C 0,0 C 59 % 68 % 0 % 1014,9 hPa 0,0 l/m 0,0 km/h (0 Bft) SW 225 0 min 0,0 UV-I 17,4 C 20,9 C 0,0 km/h (0 Bft)
03.07.2010 22:15 26,1 C 23,5 C 23,0 C 24,3 C 20,7 C 0,0 C 59 % 68 % 0 % 1014,9 hPa 0,0 l/m 0,0 km/h (0 Bft) SW 225 0 min 0,0 UV-I 17,4 C 20,7 C 0,0 km/h (0 Bft)
03.07.2010 22:20 26,0 C 23,5 C 22,9 C 24,1 C 20,4 C 0,0 C 59 % 69 % 0 % 1015,4 hPa 0,0 l/m 0,0 km/h (0 Bft) SW 225 0 min 0,0 UV-I 17,4 C 20,4 C 0,0 km/h (0 Bft)
03.07.2010 22:25 25,7 C 23,5 C 22,6 C 23,9 C 20,2 C 0,0 C 60 % 70 % 0 % 1015,4 hPa 0,0 l/m 0,0 km/h (0 Bft) SW 225 0 min 0,0 UV-I 17,3 C 20,2 C 0,0 km/h (0 Bft)
03.07.2010 22:30 25,3 C 23,5 C 22,5 C 23,5 C 19,8 C 0,0 C 61 % 71 % 0 % 1015,4 hPa 0,0 l/m 0,0 km/h (0 Bft) SW 225 0 min 0,0 UV-I 17,2 C 19,8 C 0,0 km/h (0 Bft)
03.07.2010 22:35 25,1 C 23,5 C 22,3 C 23,3 C 19,7 C 0,0 C 62 % 72 % 0 % 1015,4 hPa 0,0 l/m 0,0 km/h (0 Bft) SW 225 0 min 0,0 UV-I 17,3 C 19,7 C 0,0 km/h (0 Bft)
03.07.2010 22:40 25,1 C 23,5 C 22,1 C 23,2 C 19,4 C 0,0 C 63 % 72 % 0 % 1015,4 hPa 0,0 l/m 0,3 km/h (0 Bft) SW 225 0 min 0,0 UV-I 17,5 C 19,4 C 1,8 km/h (1 Bft)
03.07.2010 22:45 25,0 C 23,5 C 22,0 C 23,1 C 19,3 C 0,0 C 62 % 73 % 0 % 1015,4 hPa 0,0 l/m 0,3 km/h (0 Bft) SW 225 0 min 0,0 UV-I 17,2 C 19,3 C 0,0 km/h (0 Bft)
03.07.2010 22:50 24,8 C 23,5 C 21,6 C 22,9 C 19,1 C 0,0 C 63 % 73 % 0 % 1015,4 hPa 0,0 l/m 0,2 km/h (0 Bft) SW 225 0 min 0,0 UV-I 17,3 C 19,1 C 0,0 km/h (0 Bft)
03.07.2010 22:55 24,7 C 23,6 C 21,5 C 22,8 C 18,9 C 0,0 C 63 % 74 % 0 % 1015,4 hPa 0,0 l/m 0,0 km/h (0 Bft) SW 225 0 min 0,0 UV-I 17,2 C 18,9 C 0,0 km/h (0 Bft)
03.07.2010 23:00 24,5 C 23,5 C 21,5 C 22,6 C 18,8 C 0,0 C 64 % 74 % 0 % 1015,2 hPa 0,0 l/m 0,0 km/h (0 Bft) SW 225 0 min 0,0 UV-I 17,2 C 18,8 C 0,0 km/h (0 Bft)
03.07.2010 23:06 24,2 C 23,5 C 21,2 C 22,3 C 18,6 C 0,0 C 65 % 75 % 0 % 1015,2 hPa 0,0 l/m 0,0 km/h (0 Bft) N 0 0 min 0,0 UV-I 17,2 C 18,6 C 0,0 km/h (0 Bft)
03.07.2010 23:10 24,2 C 23,5 C 21,2 C 22,3 C 18,6 C 0,0 C 65 % 75 % 0 % 1015,2 hPa 0,0 l/m 0,0 km/h (0 Bft) SW 225 0 min 0,0 UV-I 17,2 C 18,6 C 0,0 km/h (0 Bft)
03.07.2010 23:15 23,8 C 23,5 C 20,8 C 22,1 C 18,6 C 0,0 C 65 % 76 % 0 % 1015,2 hPa 0,0 l/m 0,0 km/h (0 Bft) SW 225 0 min 0,0 UV-I 16,8 C 18,6 C 0,0 km/h (0 Bft)
03.07.2010 23:20 23,6 C 23,5 C 20,7 C 21,9 C 18,4 C 0,0 C 66 % 76 % 0 % 1014,9 hPa 0,0 l/m 0,0 km/h (0 Bft) SW 225 0 min 0,0 UV-I 16,9 C 18,4 C 0,0 km/h (0 Bft)
03.07.2010 23:25 23,6 C 23,5 C 20,7 C 21,8 C 18,3 C 0,0 C 67 % 76 % 0 % 1014,9 hPa 0,0 l/m 0,0 km/h (0 Bft) SW 225 0 min 0,0 UV-I 17,1 C 18,3 C 0,0 km/h (0 Bft)
03.07.2010 23:30 23,7 C 23,5 C 20,7 C 21,8 C 18,1 C 0,0 C 66 % 76 % 0 % 1014,9 hPa 0,0 l/m 1,0 km/h (0 Bft) S-SW 202 0 min 0,0 UV-I 17,0 C 18,1 C 2,6 km/h (1 Bft)
03.07.2010 23:35 23,6 C 23,5 C 20,7 C 21,7 C 18,0 C 0,0 C 66 % 76 % 0 % 1014,9 hPa 0,0 l/m 1,3 km/h (1 Bft) SW 225 0 min 0,0 UV-I 16,9 C 18,0 C 1,8 km/h (1 Bft)
03.07.2010 23:40 23,3 C 23,5 C 20,7 C 21,4 C 17,7 C 0,0 C 66 % 76 % 0 % 1015,2 hPa 0,0 l/m 0,6 km/h (0 Bft) W-SW 247 0 min 0,0 UV-I 16,6 C 17,7 C 0,0 km/h (0 Bft)
03.07.2010 23:45 22,8 C 23,5 C 20,7 C 21,1 C 17,7 C 0,0 C 67 % 76 % 0 % 1015,2 hPa 0,0 l/m 0,2 km/h (0 Bft) W-SW 247 0 min 0,0 UV-I 16,3 C 17,7 C 0,0 km/h (0 Bft)
03.07.2010 23:50 22,7 C 23,5 C 20,7 C 21,0 C 17,5 C 0,0 C 67 % 76 % 0 % 1015,2 hPa 0,0 l/m 0,0 km/h (0 Bft) W-SW 247 0 min 0,0 UV-I 16,2 C 17,5 C 0,0 km/h (0 Bft)
03.07.2010 23:55 22,6 C 23,4 C 20,7 C 20,9 C 17,4 C 0,0 C 67 % 76 % 0 % 1015,2 hPa 0,0 l/m 0,0 km/h (0 Bft) W-SW 247 0 min 0,0 UV-I 16,2 C 17,4 C 0,0 km/h (0 Bft)
_ Min-Zeit 05:15 10:40 07:30 05:15 05:06 00:00 15:00 15:06 00:00 18:40 - 00:00 - - - 00:00 13:50 05:06 00:00
Minimum _ 18,6 C 21,1 C 18,5 C 17,5 C 15,4 C 0,0 C 32 % 31 % 0 % 1014,4 hPa - 0,0 km/h (0 Bft) - - - 0,0 UV-I 13,0 C 15,4 C 0,0 km/h (0 Bft)
_ Max-Zeit 15:15 21:06 15:15 15:20 15:20 09:20 05:06 07:30 07:40 12:00 00:00 11:01 - - 10:08 14:00 09:30 15:20 11:10
Maximum _ 32,4 C 23,6 C 34,1 C 36,6 C 36,6 C 9,4 C 77 % 81 % 100 % 1017,2 hPa 0,0 l/m 7,7 km/h
O-NO (2 Bft)
- - 8 min 4,9 UV-I 18,6 C 36,6 C 15,9 km/h
O-NO (3 Bft)
Durchschnitt _ 26,2 C 22,3 C 25,3 C 27,5 C 26,4 C 1,9 C 55 % 58 % 42 % 1015,7 hPa #0,0 l/m 1,9 km/h (1 Bft) O-NO - #6:26 h 2,4 UV-I 15,4 C 26,4 C 2,5 km/h (1 Bft)
2010 www.wetterstation-wechselburg.de